Stations météo

réclame
Mon MeteoGroup
Geilenkirchen, Allemagne (10500): Température de l'air & dewpoint: 12.02.2019 17:00:00 - 18.02.2019 17:00:00 (CET)Geilenkirchen, Allemagne (10500): Vitesse du vent: 12.02.2019 17:00:00 - 18.02.2019 17:00:00 (CET)Geilenkirchen, Allemagne (10500): Direction du vent: 12.02.2019 17:00:00 - 18.02.2019 17:00:00 (CET)Geilenkirchen, Allemagne (10500): reduced air pressure: 12.02.2019 17:00:00 - 18.02.2019 17:00:00 (CET)Geilenkirchen, Allemagne (10500): visibility: 12.02.2019 17:00:00 - 18.02.2019 17:00:00 (CET)
Date & Time tt [°C] td [°C] ff [km/h] ff [knt] dd ppp [hPa] vv [km]
18.02.2019 17:00:00 16,5 1,1 8 4 SW 1015,5 10
18.02.2019 16:00:00 17,0 2,7 8 4 E 1015,7 10
18.02.2019 15:00:00 17,0 3,6 5 3 ENE 1015,9 10
18.02.2019 14:00:00 16,2 3,4 8 4 NE 1016,8 10
18.02.2019 13:00:00 16,9 0,8 4 2 ESE 1017,7 10
18.02.2019 12:00:00 16,1 -0,6 9 5 WSW 1018,4 10
18.02.2019 11:00:00 15,4 0,0 4 2 SW 1018,6 10
18.02.2019 10:00:00 12,2 1,6 2 1 W 1019,1 10
18.02.2019 09:00:00 5,1 0,1 4 2 SSW 1019,4 10
18.02.2019 08:00:00 1,5 -2,1 4 2 ESE 1019,5 10
18.02.2019 07:00:00 0,4 -2,7 5 3 E 1019,8 10
18.02.2019 06:00:00 0,8 -2,6 4 2 ESE 1019,9 10
18.02.2019 05:00:00 3,1 -2,4 4 2 E 1019,8 10
18.02.2019 04:00:00 8,4 -1,0 4 2 ESE 1019,7 10
18.02.2019 03:00:00 6,8 -1,0 5 3 SE 1020,1 10
18.02.2019 02:00:00 2,9 -1,6 4 2 ESE 1020,3 10
18.02.2019 01:00:00 2,5 -1,5 4 2 E 1020,4 10
18.02.2019 00:00:00 4,1 -0,7 2 1 ESE 1020,4 10
17.02.2019 23:00:00 4,7 -0,1 4 2 SE 1020,7 10
17.02.2019 22:00:00 8,0 0,1 2 1 SSE 1020,5 10
17.02.2019 21:00:00 9,2 0,2 2 1 ESE 1020,4 10
17.02.2019 20:00:00 12,9 0,3 5 3 S 1019,9 10
17.02.2019 19:00:00 13,8 0,6 5 3 SSE 1019,9 10
17.02.2019 18:00:00 - - - - - - -
17.02.2019 17:00:00 - - - - - - -
17.02.2019 16:00:00 - - - - - - -
17.02.2019 15:00:00 - - - - - - -
17.02.2019 14:00:00 - - - - - - -
17.02.2019 13:00:00 - - - - - - -
17.02.2019 12:00:00 - - - - - - -
17.02.2019 11:00:00 - - - - - - -
17.02.2019 10:00:00 - - - - - - -
17.02.2019 09:00:00 - - - - - - -
17.02.2019 08:00:00 - - - - - - -
17.02.2019 07:00:00 - - - - - - -
17.02.2019 06:00:00 - - - - - - -
17.02.2019 05:00:00 - - - - - - -
17.02.2019 04:00:00 - - - - - - -
17.02.2019 03:00:00 - - - - - - -
17.02.2019 02:00:00 - - - - - - -
17.02.2019 01:00:00 - - - - - - -
17.02.2019 00:00:00 - - - - - - -
16.02.2019 23:00:00 - - - - - - -
16.02.2019 22:00:00 - - - - - - -
16.02.2019 21:00:00 - - - - - - -
16.02.2019 20:00:00 - - - - - - -
16.02.2019 19:00:00 - - - - - - -
16.02.2019 18:00:00 - - - - - - -
16.02.2019 17:00:00 - - - - - - -
16.02.2019 16:00:00 - - - - - - -
16.02.2019 15:00:00 - - - - - - -
16.02.2019 14:00:00 - - - - - - -
16.02.2019 13:00:00 - - - - - - -
16.02.2019 12:00:00 - - - - - - -
16.02.2019 11:00:00 - - - - - - -
16.02.2019 10:00:00 - - - - - - -
16.02.2019 09:00:00 - - - - - - -
16.02.2019 08:00:00 - - - - - - -
16.02.2019 07:00:00 - - - - - - -
16.02.2019 06:00:00 - - - - - - -
16.02.2019 05:00:00 - - - - - - -
16.02.2019 04:00:00 - - - - - - -
16.02.2019 03:00:00 - - - - - - -
16.02.2019 02:00:00 - - - - - - -
16.02.2019 01:00:00 - - - - - - -
16.02.2019 00:00:00 - - - - - - -
15.02.2019 23:00:00 - - - - - - -
15.02.2019 22:00:00 - - - - - - -
15.02.2019 21:00:00 - - - - - - -
15.02.2019 20:00:00 9,8 4,1 4 2 E 1028,0 10
15.02.2019 19:00:00 11,5 4,0 5 3 ESE 1028,2 10
15.02.2019 18:00:00 10,7 3,7 8 4 E 1028,2 10
15.02.2019 17:00:00 15,4 5,5 11 6 E 1028,3 10
15.02.2019 16:00:00 15,8 4,8 13 7 E 1029,0 10
15.02.2019 15:00:00 15,9 4,8 11 6 E 1029,7 10
15.02.2019 14:00:00 15,0 4,0 11 6 ESE 1030,6 10
15.02.2019 13:00:00 13,2 2,9 9 5 E 1031,4 10
15.02.2019 12:00:00 11,4 1,1 9 5 E 1032,0 10
15.02.2019 11:00:00 9,3 -0,4 8 4 E 1032,3 10
15.02.2019 10:00:00 6,0 -1,5 8 4 ENE 1032,7 10
15.02.2019 09:00:00 3,7 -2,9 5 3 E 1032,9 10
15.02.2019 08:00:00 -1,1 -3,8 11 6 E 1032,8 10
15.02.2019 07:00:00 -1,6 -3,9 8 4 E 1032,8 10
15.02.2019 06:00:00 -1,4 -3,6 8 4 E 1032,8 10
15.02.2019 05:00:00 -1,2 -3,8 9 5 E 1033,0 10
15.02.2019 04:00:00 -0,7 -3,4 5 3 E 1033,3 10
15.02.2019 03:00:00 0,7 -3,4 5 3 E 1033,6 10
15.02.2019 02:00:00 2,3 -2,7 4 2 E 1033,9 25
15.02.2019 01:00:00 -0,5 -2,5 9 5 SE 1034,0 10
15.02.2019 00:00:00 2,2 -0,4 4 2 E 1033,7 10
14.02.2019 23:00:00 2,2 -0,5 4 2 - 1033,8 10
14.02.2019 22:00:00 4,7 0,0 9 5 SSE 1033,8 10
14.02.2019 21:00:00 3,2 -0,1 5 3 - 1034,1 10
14.02.2019 20:00:00 4,3 0,2 8 4 ENE 1034,2 10
14.02.2019 19:00:00 3,9 1,3 8 4 E 1034,4 10
14.02.2019 18:00:00 7,0 1,9 4 2 ESE 1034,1 10
14.02.2019 17:00:00 11,9 1,7 15 8 E 1034,1 10
14.02.2019 16:00:00 14,8 1,4 11 6 E 1034,4 10
14.02.2019 15:00:00 15,8 -1,1 8 4 ENE 1034,6 10
14.02.2019 14:00:00 14,7 1,2 9 5 E 1035,1 10
14.02.2019 13:00:00 14,0 -0,2 8 4 NE 1035,8 10
14.02.2019 12:00:00 13,0 -1,7 2 1 E 1036,3 10
14.02.2019 11:00:00 10,2 -1,0 5 3 SSE 1036,4 10
14.02.2019 10:00:00 5,5 -0,9 2 1 E 1036,7 10
14.02.2019 09:00:00 2,1 -2,4 0 0 E 1037,0 10
14.02.2019 08:00:00 -2,5 -4,3 4 2 ESE 1036,6 10
14.02.2019 07:00:00 -3,5 -5,1 8 4 SSE 1036,1 10
14.02.2019 06:00:00 -2,8 -4,0 5 3 E 1036,2 10
14.02.2019 05:00:00 -2,9 -3,3 4 2 SSE 1036,0 15
14.02.2019 04:00:00 -2,0 -3,3 2 1 SE 1036,0 10
14.02.2019 03:00:00 -1,3 -2,1 4 2 SSE 1036,1 10
14.02.2019 02:00:00 -1,2 -1,7 9 5 S 1036,0 10
14.02.2019 01:00:00 -0,9 -1,6 8 4 SSE 1036,2 10
14.02.2019 00:00:00 0,2 -1,1 8 4 S 1036,1 10
13.02.2019 23:00:00 1,0 -0,5 5 3 SSE 1036,4 10
13.02.2019 22:00:00 1,7 0,2 8 4 SSE 1036,5 10
13.02.2019 21:00:00 2,0 0,1 4 2 S 1036,6 10
13.02.2019 20:00:00 2,3 0,6 4 2 SSE 1036,6 10
13.02.2019 19:00:00 3,3 0,8 4 2 SE 1036,6 10
13.02.2019 18:00:00 6,1 1,6 2 1 S 1036,3 10
13.02.2019 17:00:00 7,4 1,8 5 3 W 1036,2 10
13.02.2019 16:00:00 8,0 1,4 4 2 SW 1036,0 10
13.02.2019 15:00:00 8,1 1,0 8 4 SSW 1036,3 10
13.02.2019 14:00:00 7,5 0,6 13 7 WSW 1037,0 10
13.02.2019 13:00:00 7,1 0,4 13 7 WSW 1037,1 10
13.02.2019 12:00:00 6,4 0,3 13 7 SW 1037,3 10
13.02.2019 11:00:00 6,0 -0,2 13 7 WSW 1037,4 10
13.02.2019 10:00:00 4,3 -0,4 11 6 WSW 1037,4 10
13.02.2019 09:00:00 2,9 -0,8 11 6 SSW 1037,3 10
13.02.2019 08:00:00 2,2 -0,9 13 7 SSW 1036,9 10
13.02.2019 07:00:00 2,1 -0,8 9 5 SSW 1036,4 10
13.02.2019 06:00:00 2,3 -0,7 9 5 SSW 1036,3 10
13.02.2019 05:00:00 2,4 -0,6 13 7 SSW 1036,3 10
13.02.2019 04:00:00 2,7 -0,3 11 6 SW 1036,7 10
13.02.2019 03:00:00 2,5 0,1 13 7 SW 1037,1 10
13.02.2019 02:00:00 2,7 0,2 11 6 SW 1037,0 10
13.02.2019 01:00:00 3,1 0,3 9 5 SW 1036,7 10
13.02.2019 00:00:00 3,1 0,5 11 6 SW 1036,7 10
12.02.2019 23:00:00 3,4 0,9 11 6 SW 1036,3 10
12.02.2019 22:00:00 3,9 1,1 11 6 SW 1036,3 10
12.02.2019 21:00:00 4,3 1,2 8 4 SW 1036,1 10
12.02.2019 20:00:00 4,7 1,5 8 4 SW 1035,7 10
12.02.2019 19:00:00 5,7 1,9 9 5 SW 1035,8 10
12.02.2019 18:00:00 6,4 2,4 5 3 SW 1035,1 10
12.02.2019 17:00:00 7,4 2,4 13 7 WSW 1035,0 10

tt = Température de l'air
td = dewpoint
ff = Vitesse du vent
dd = Direction du vent
ppp = reduced air pressure
vv = visibility

stations d'obs. à proximité